Terminal Aerodrome Forecast
Issued by NWS

Home | Current Version | Previous Version | Graphics & Text | Print | Product List | Glossary On
Versions: 1 2 3 4 5 6 7 8 9 10 11 12 13 14 15 16 17 18 19 20
000
FTUS42 KMHX 221700
TAFPGV
TAF
KPGV 221728Z 2218/2318 35012G23KT P6SM SCT025 OVC040
     FM222300 33005KT P6SM SCT040
     FM231400 32010G17KT P6SM SKC
      AMD LTD TO CLD VIS AND WIND=

USA.gov is the U.S. government's official web portal to all federal, state and local government web resources and services.